Weather in Yangon

Myanmar     16°54′28″N   96°07′40″E
temp.,
°C
wind,
m/s
gust,
m/s
humid.,
%
clouds,
%
prec.,
mm/h
press.,
hPa
HPBL,
m
24 july, sat
sat2400:30+26ssw51188100 5.3 1006441
03:30+26sw3891100 4.2 1005213
06:30+25sw2494100 9.3 1005138
09:30+29wsw6108185 5.2 1006819
12:30+30wsw6971100 8.4 10051303
15:30+28wsw4882100 4.4 1004305
18:30+26wsw4887100 8.6 1004285
21:30+26sw3990100 2.3 1006303
25 july, sun
sun2500:30+25sw3991100 4.5 1005310
03:30+25sw399299 2.9 1004267
06:30+26sw31087100 4.2 1005341
09:30+26sw41085100 2.4 1006497
12:30+27sw51083100 4.7 1005626
15:30+27wsw5108189 2.8 1003764
18:30+26sw4986100 3.6 1004373
21:30+26sw41088100 0.1 1006417
26 july, mon
mon2600:30+25sw51290100 0.6 1005589
03:30+25sw51291100 0.5 1004637
06:30+25wsw51290100 1.2 1005634
09:30+25sw71392100 1.7 1006706
12:30+25sw61393100 8.3 1005734
15:30+25sw61390100 3.4 1003922
18:30+25sw51289100 4.1 1004587
21:30+25sw51393100 0.3 1005678
27 july, tue
tue2700:30+25sw41294100 0.5 1004703
03:30+25wsw41291100 0.4 1003748
06:30+25sw41194100 1.7 1003593
09:30+25ssw3995100 0.3 1004515
12:30+29wsw7975100 4.8 10031171
15:30+29wsw5878100 2.8 10011013
18:30+27wsw5986100 5.4 1002381
21:30+26sw3992100 1.9 1004415
28 july, wed
wed2800:30+25sw31192100 2.4 1003505
03:30+25sw31094100 0.3 1002495
06:30+25ssw31092100 1.0 1003491
09:30+29wsw5977100 1.8 1004933
12:30+31wsw6868100 3.8 10031397
15:30+30sw5769100 2.6 10011223
18:30+27sw4782100 4.8 1002198
21:30+26sw388997 1.8 1005304